DW2973 Frederiksvaerk DK current weather conditions

sailwx.info

Wind from 024 at 2 knots

Air temperature 20.6° C
Dewpoint 16.0° C

Last reported at 2018-Jul-16 08:05 UTC.
Time now 2018-Jul-16 08:53 UTC

Location: N 55°59' E 011°59'.
View on Google Maps.

See reports from other nearby stations

  
Tides and Currents Weather Stations Pressure Air Temp Water Temp Dewpoint Dewpoint Depression Visibility Wind Speed Wind Dir Waves Ship Positions
date/time (UTC)wind fromknots sea level pressurealtimeterstation pressurevisibilityair tempwater tempwave heightnotes
2018-Jul-16 08:05 024 2 20.6
2018-Jul-16 07:50 360 1 20.6
2018-Jul-16 07:35 323 2 20.0
2018-Jul-16 07:20 334 3 20.0
2018-Jul-16 07:05 323 0 20.0
2018-Jul-16 06:50 360 2 19.4
2018-Jul-16 06:35 029 2 19.4
2018-Jul-16 06:20 019 18.9
2018-Jul-16 06:05 019 2 18.9
2018-Jul-16 05:50 013 3 18.3
2018-Jul-16 05:35 355 1 18.3
2018-Jul-16 05:20 322 0 18.3
2018-Jul-16 05:05 355 0 17.8
2018-Jul-16 04:51 355 17.8
2018-Jul-16 04:35 355 0 17.2
2018-Jul-16 04:20 024 17.2
2018-Jul-16 04:05 018 16.7
2018-Jul-16 03:50 360 16.7
2018-Jul-16 03:35 355 0 16.7
2018-Jul-16 03:20 351 16.7
2018-Jul-16 03:05 012 16.7
2018-Jul-16 02:50 005 16.7
2018-Jul-16 02:35 333 16.1
2018-Jul-16 02:20 333 16.1
2018-Jul-16 02:05 355 16.1
2018-Jul-16 01:49 360 16.1
2018-Jul-16 01:34 355 16.1
2018-Jul-16 01:19 005 16.1
2018-Jul-16 01:04 005 15.6
2018-Jul-16 00:49 005 15.6
2018-Jul-16 00:34 005 15.6
2018-Jul-16 00:19 005 15.0
2018-Jul-16 00:04 005 15.0
2018-Jul-15 23:49 005 15.0
2018-Jul-15 23:34 005 14.4
2018-Jul-15 23:19 360 14.4
2018-Jul-15 23:04 005 14.4
2018-Jul-15 22:49 360 14.4
2018-Jul-15 22:34 360 14.4
2018-Jul-15 21:49 360 14.4
2018-Jul-15 21:19 360 15.0
2018-Jul-15 21:04 005 15.6
2018-Jul-15 20:49 005 15.6
2018-Jul-15 20:19 005 16.7
2018-Jul-15 20:04 005 17.2
2018-Jul-15 19:49 360 17.8
2018-Jul-15 19:34 360 18.3
2018-Jul-15 19:19 360 18.3
2018-Jul-15 19:04 005 18.9
2018-Jul-15 18:49 005 18.9
2018-Jul-15 18:34 005 19.4
2018-Jul-15 18:19 009 20.0
2018-Jul-15 18:04 009 20.6
2018-Jul-15 17:49 355 21.7
2018-Jul-15 17:34 010 21.7
2018-Jul-15 17:19 011 21.7
2018-Jul-15 17:04 331 0 21.1
2018-Jul-15 16:49 013 21.1
2018-Jul-15 16:34 350 0 21.1
2018-Jul-15 16:19 327 22.2
2018-Jul-15 16:04 349 22.8
2018-Jul-15 15:49 351 23.3
2018-Jul-15 15:34 336 22.8
2018-Jul-15 15:19 038 0 22.8
2018-Jul-15 15:04 280 0 21.7
2018-Jul-15 14:49 016 0 21.7
2018-Jul-15 14:34 022 0 21.7
2018-Jul-15 14:19 344 0 22.2
2018-Jul-15 14:04 348 21.7
2018-Jul-15 13:49 355 21.1
2018-Jul-15 13:34 313 0 20.0
2018-Jul-15 13:19 322 1 20.6
2018-Jul-15 13:04 346 0 20.6
2018-Jul-15 12:49 313 0 21.1
2018-Jul-15 12:34 254 0 21.7
2018-Jul-15 12:19 360 0 21.7
2018-Jul-15 12:04 317 0 21.7
2018-Jul-15 11:48 238 0 21.1
2018-Jul-15 11:33 360 21.7
2018-Jul-15 11:18 288 20.6
2018-Jul-15 11:03 281 0 20.6
2018-Jul-15 10:48 323 0 20.6
2018-Jul-15 10:33 304 0 20.6
2018-Jul-15 10:18 311 20.6
2018-Jul-15 10:03 296 20.0
2018-Jul-15 09:48 347 19.4
2018-Jul-15 09:33 250 20.0
2018-Jul-15 09:18 261 20.0
2018-Jul-15 09:03 295 0 19.4
2018-Jul-15 08:48 226 20.0
2018-Jul-15 08:33 266 19.4
2018-Jul-15 08:18 261 0 19.4
2018-Jul-15 08:03 207 20.0
2018-Jul-15 07:48 304 0 19.4
2018-Jul-15 07:33 340 0 18.9
2018-Jul-15 07:18 315 0 18.3
2018-Jul-15 07:03 322 0 18.3
2018-Jul-15 06:48 341 18.3
2018-Jul-15 06:33 011 18.3
2018-Jul-15 06:18 307 17.8
2018-Jul-15 06:03 242 0 17.2
2018-Jul-15 05:48 284 17.2
2018-Jul-15 05:33 296 17.2
2018-Jul-15 05:18 296 0 16.7
2018-Jul-15 05:03 297 16.7
2018-Jul-15 04:48 323 0 16.7
2018-Jul-15 04:33 323 16.7
2018-Jul-15 04:18 330 16.1
2018-Jul-15 04:03 334 16.1
2018-Jul-15 03:48 336 16.1
2018-Jul-15 03:33 323 0 16.1
2018-Jul-15 03:18 336 16.1
2018-Jul-15 03:03 334 0 15.6
2018-Jul-15 02:48 310 15.6
2018-Jul-15 02:33 333 0 15.6
2018-Jul-15 02:18 295 15.6
2018-Jul-15 02:03 319 0 15.6
2018-Jul-15 01:48 341 15.6
2018-Jul-15 01:33 360 0 15.6
2018-Jul-15 01:18 306 1 16.1
2018-Jul-15 01:03 313 0 16.1
2018-Jul-15 00:48 313 0 16.1
2018-Jul-15 00:33 331 16.1
2018-Jul-15 00:18 301 16.1
2018-Jul-15 00:03 281 15.6
2018-Jul-14 23:48 205 0 16.1
2018-Jul-14 23:33 345 16.1
2018-Jul-14 23:18 333 0 16.1
2018-Jul-14 23:03 320 16.1
2018-Jul-14 22:48 330 16.1
2018-Jul-14 22:32 335 16.1
2018-Jul-14 22:17 315 16.1
2018-Jul-14 22:02 329 16.1
2018-Jul-14 21:47 290 16.1
2018-Jul-14 21:32 344 16.1
2018-Jul-14 21:17 340 16.7
2018-Jul-14 21:02 340 16.7
2018-Jul-14 20:47 348 16.7
2018-Jul-14 20:32 318 16.7
2018-Jul-14 20:17 005 16.7
2018-Jul-14 20:02 235 17.2
2018-Jul-14 19:47 234 17.8
2018-Jul-14 19:32 234 18.3
2018-Jul-14 19:17 234 18.9
2018-Jul-14 19:02 235 19.4
2018-Jul-14 18:32 235 20.0
2018-Jul-14 18:17 228 20.6
2018-Jul-14 17:17 230 22.2
2018-Jul-14 16:47 282 22.2
2018-Jul-14 16:32 339 21.7
2018-Jul-14 16:17 240 0 21.7
2018-Jul-14 16:02 229 0 21.7
2018-Jul-14 15:47 298 0 21.7
2018-Jul-14 15:32 237 21.7
2018-Jul-14 15:17 221 0 21.1
2018-Jul-14 15:02 227 1 21.1
2018-Jul-14 14:47 203 1 21.1
2018-Jul-14 14:32 254 1 20.6
2018-Jul-14 14:16 235 1 20.0
2018-Jul-14 14:01 329 1 20.0
2018-Jul-14 13:46 199 0 20.0
2018-Jul-14 13:31 218 0 19.4
2018-Jul-14 13:16 327 0 19.4
2018-Jul-14 13:01 252 0 18.9
2018-Jul-14 12:46 346 0 19.4
2018-Jul-14 12:31 325 0 18.9
2018-Jul-14 12:16 217 0 18.9
2018-Jul-14 12:01 261 0 18.9
2018-Jul-14 11:46 236 0 18.3
2018-Jul-14 11:31 313 0 18.3
2018-Jul-14 11:16 351 0 17.8
2018-Jul-14 11:01 313 0 17.8
2018-Jul-14 10:46 241 0 17.8
2018-Jul-14 10:31 238 0 17.8
2018-Jul-14 10:16 296 17.8
2018-Jul-14 10:01 348 0 17.2
2018-Jul-14 09:46 198 0 16.7
2018-Jul-14 09:31 329 16.7
2018-Jul-14 09:16 270 16.7
2018-Jul-14 09:01 340 0 16.1
2018-Jul-14 08:46 311 16.1
2018-Jul-14 08:31 329 16.1
2018-Jul-14 08:16 252 0 15.6
2018-Jul-14 08:01 325 15.6